Tracking 20376 objects as of 20-Feb-2020
HD Live streaming from Space Station
objects crossing your sky now
Track the group of recently launched Starlink satellites

THOR 2A

Track THOR 2A now!
THOR 2A is classified as:


NORAD ID: 24808
Int'l Code: 1997-025A
Perigee: 36,126.3 km
Apogee: 36,199.0 km
Inclination: 8.3 °
Period: 1,455.0 minutes
Semi major axis: 42533 km
RCS: 15.8489 m2 (large)
Launch date: May 20, 1997
Source: Norway (NOR)
Launch site: AIR FORCE EASTERN TEST RANGE (AFETR)

15 Ku-band; Nordic region, northern Europe.
aabbcc
Your satellite tracking list
Your tracking list is empty




NASA's NSSDC Master Catalog

Two Line Element Set (TLE):
1 24808U 97025A   20050.41356802 -.00000093 +00000-0 +00000-0 0  9994
2 24808 008.3224 046.7161 0008554 291.3027 058.7067 00.98970098023215
Source of the keplerian elements: AFSPC